Pierceville, KS

6:27 AM CST on February 25, 2017 (GMT -0600)
Garden City Regional

Weather History for KGCK - March, 2014

Change the Weather History Date:

Friday, March 7, 2014

  Actual Average Record
Temperature  
Mean Temperature 41 °F 41 °F  
Max Temperature 53 °F 55 °F 80 °F (2006)
Min Temperature 28 °F 27 °F -6 °F (1996)
Degree Days  
Heating Degree Days 24 24  
Month to date heating degree days 275 175  
Since 1 July heating degree days 4451 4199  
Cooling Degree Days 0 0  
Month to date cooling degree days 0 0  
Year to date cooling degree days 0 0  
Moisture  
Dew Point 30 °F    
Average Humidity 63    
Maximum Humidity 76    
Minimum Humidity 50    
Precipitation  
Precipitation 0.00 in 0.04 in 0.80 in (1981)
Month to date precipitation 0.03 0.23  
Year to date precipitation 0.19 1.11  
Sea Level Pressure  
Sea Level Pressure 29.84 in    
Wind  
Wind Speed 19 mph (NE)    
Max Wind Speed 33 mph    
Max Gust Speed 41 mph    
Visibility 10 miles    
Events      
T = Trace of Precipitation, MM = Missing Value Source: NWS Daily Summary

Daily Weather History Graph

Daily Weather History Graph

Search for Another Location

Airport or City:

Trip Planner

Search our weather history database for the weather conditions in past years. The results will help you decide how hot, cold, wet, or windy it might be!

Date:

Astronomy

Mar. 07, 2014 Rise Set
Actual Time 7:05 AM CST 6:42 PM CST
Civil Twilight 6:39 AM CST 7:08 PM CST
Nautical Twilight 6:09 AM CST 7:39 PM CST
Astronomical Twilight 5:38 AM CST 8:09 PM CST
Moon 11:06 AM CST (3/7) 12:43 AM CST (3/7)
Length of Visible Light 12h 29m
Length of Day
11h 36m
Waxing Crescent, 42% of the Moon is Illuminated
Mar 7
Waxing Crescent
Mar 8
First Quarter
Mar 16
Full
Mar 23
Last Quarter
Mar 30
New

Hourly Weather History & Observations

Time (CST) Temp. Windchill Dew Point Humidity Pressure Visibility Wind Dir Wind Speed Gust Speed Precip Events Conditions
12:54 AM 41.0 °F 33.9 °F 30.9 °F 67% 29.72 in 10.0 mi South 12.7 mph - N/A   Clear
1:54 AM 39.9 °F 32.9 °F 30.0 °F 68% 29.70 in 10.0 mi South 11.5 mph - N/A   Clear
2:54 AM 39.0 °F 32.8 °F 30.0 °F 70% 29.67 in 10.0 mi SSE 9.2 mph - N/A   Clear
3:54 AM 37.0 °F 30.4 °F 30.0 °F 76% 29.66 in 10.0 mi South 9.2 mph - N/A   Clear
4:54 AM 39.0 °F 32.3 °F 28.9 °F 67% 29.64 in 10.0 mi SSE 10.4 mph - N/A   Clear
5:54 AM 37.0 °F 33.3 °F 28.9 °F 73% 29.66 in 10.0 mi SSE 4.6 mph - N/A   Clear
6:54 AM 35.1 °F 27.9 °F 28.0 °F 76% 29.68 in 10.0 mi East 9.2 mph - N/A   Clear
7:54 AM 36.0 °F 29.0 °F 28.9 °F 76% 29.70 in 10.0 mi NNE 9.2 mph - N/A   Clear
8:54 AM 39.9 °F 33.4 °F 30.0 °F 68% 29.72 in 10.0 mi North 10.4 mph - N/A   Clear
9:54 AM 46.0 °F 37.6 °F 30.9 °F 56% 29.74 in 10.0 mi North 24.2 mph 29.9 mph N/A   Clear
10:54 AM 50.0 °F - 34.0 °F 54% 29.73 in 10.0 mi NNE 29.9 mph 40.3 mph N/A   Clear
11:54 AM 52.0 °F - 35.1 °F 53% 29.77 in 10.0 mi NNE 25.3 mph 34.5 mph N/A   Clear
12:54 PM 53.1 °F - 35.1 °F 50% 29.78 in 10.0 mi NNE 25.3 mph 33.4 mph N/A   Clear
1:54 PM 52.0 °F - 35.1 °F 53% 29.78 in 10.0 mi NNE 32.2 mph 40.3 mph N/A   Clear
2:50 PM 48.2 °F - 33.8 °F 58% 29.80 in 10.0 mi NE 28.8 mph 36.8 mph N/A   Mostly Cloudy
2:54 PM 48.0 °F - 33.1 °F 56% 29.81 in 10.0 mi NE 28.8 mph 36.8 mph N/A   Mostly Cloudy
3:54 PM 43.0 °F 33.1 °F 32.0 °F 65% 29.87 in 10.0 mi NE 26.5 mph 33.4 mph N/A   Overcast
4:54 PM 41.0 °F 31.4 °F 30.9 °F 67% 29.91 in 8.0 mi NE 21.9 mph 33.4 mph N/A   Overcast
5:54 PM 39.9 °F 31.1 °F 30.9 °F 70% 29.95 in 7.0 mi ENE 17.3 mph - N/A   Overcast
6:54 PM 39.0 °F 30.3 °F 30.9 °F 73% 30.00 in 8.0 mi NE 16.1 mph - N/A   Overcast
7:54 PM 37.9 °F 26.8 °F 26.1 °F 62% 30.02 in 10.0 mi NNE 24.2 mph 35.7 mph N/A   Overcast
8:54 PM 36.0 °F 24.7 °F 24.1 °F 62% 30.07 in 10.0 mi NNE 21.9 mph 33.4 mph N/A   Overcast
9:54 PM 32.0 °F 18.9 °F 23.0 °F 69% 30.12 in 9.0 mi NNE 24.2 mph 32.2 mph N/A   Overcast
10:54 PM 30.0 °F 16.6 °F 23.0 °F 75% 30.12 in 9.0 mi NNE 23.0 mph - N/A   Overcast
11:28 PM 28.9 °F 15.4 °F 23.0 °F 78% 30.10 in 8.0 mi North 21.9 mph - N/A   Overcast
11:54 PM 28.0 °F 13.3 °F 21.9 °F 78% 30.13 in 7.0 mi North 25.3 mph - N/A   Overcast